This is the latest recevied weather packets stored in our database for station/object AI5KP-13. If no packets are shown the sender has not sent any weather packets the latest 10 day(s).
| Time | Temp. | Humidity | Pressure | Rain* | Wind** | Luminosity | Snow |
|---|---|---|---|---|---|---|---|
| 1777466723 | 11.67° C | 89% | 1017.5 hPa | 0 mm | - | 57 W/m² | - |
| 1777466420 | 11.67° C | 89% | 1017.4 hPa | 0 mm | - | 49 W/m² | - |
| 1777466115 | 11.67° C | 89% | 1017.5 hPa | 0 mm | - | 41 W/m² | - |
| 1777465813 | 11.67° C | 90% | 1017.5 hPa | 0 mm | - | 46 W/m² | - |
| 1777465508 | 11.67° C | 90% | 1017.4 hPa | 0 mm | - | 38 W/m² | - |
| 1777465203 | 11.67° C | 91% | 1017.4 hPa | 0 mm | - | 29 W/m² | - |
| 1777464897 | 11.67° C | 92% | 1017.3 hPa | 0 mm | - | 23 W/m² | - |
| 1777464593 | 11.67° C | 93% | 1017.4 hPa | 0 mm | - | 24 W/m² | - |
| 1777464289 | 11.67° C | 92% | 1017.3 hPa | 0 mm | - | 17 W/m² | - |
| 1777463985 | 11.67° C | 92% | 1017.3 hPa | 0 mm | - | 14 W/m² | - |
| 1777463680 | 11.67° C | 93% | 1017.3 hPa | 0 mm | - | 11 W/m² | - |
| 1777463375 | 11.67° C | 93% | 1017.1 hPa | 0 mm | - | 9 W/m² | - |
| 1777463072 | 11.67° C | 93% | 1016.9 hPa | 0 mm | - | 7 W/m² | - |
| 1777462767 | 11.67° C | 94% | 1017 hPa | 0 mm | - | 5 W/m² | - |
| 1777462463 | 11.67° C | 95% | 1016.9 hPa | 0 mm | - | 3 W/m² | - |
| 1777462160 | 11.67° C | 95% | 1017.1 hPa | 0 mm | - | 2 W/m² | - |
| 1777461856 | 11.67° C | 95% | 1017.2 hPa | 0 mm | - | 1 W/m² | - |
| 1777461553 | 11.67° C | 95% | 1017.1 hPa | 0 mm | - | 1 W/m² | - |
| 1777461249 | 11.67° C | 95% | 1017 hPa | 0 mm | - | 0 W/m² | - |
| 1777460944 | 11.67° C | 95% | 1017.2 hPa | 0 mm | - | 0 W/m² | - |
| 1777460639 | 11.67° C | 96% | 1017 hPa | 0 mm | - | 0 W/m² | - |
| 1777460335 | 11.67° C | 96% | 1016.9 hPa | 0 mm | - | 0 W/m² | - |
| 1777460032 | 11.67° C | 96% | 1016.6 hPa | 0 mm | - | 0 W/m² | - |
| 1777459729 | 11.67° C | 96% | 1016.7 hPa | 0 mm | - | 0 W/m² | - |
| 1777459425 | 11.67° C | 96% | 1016.9 hPa | 0 mm | - | 0 W/m² | - |
* Rain latest hour (hover to see other rain measurements)
** Current wind speed in m/s (hover to see current wind gust speed)